Time,TemperatureF,DewpointF,PressureIn,WindDirection,WindDirectionDegrees,WindSpeedMPH,WindSpeedGustMPH,Humidity,HourlyPrecipIn,Conditions,Clouds,dailyrainin,SoftwareType,DateUTC
2013-01-31 00:59:00,15.9,11.1,29.03,North,0,0.0,0.0,81,0.00,,,0.00,WUHU216HW,2013-01-31 06:59:00,
2013-01-31 01:00:00,15.9,11.1,29.03,North,0,0.0,0.0,81,0.00,,,0.00,WUHU216HW,2013-01-31 07:00:00,
2013-01-31 01:01:00,15.9,11.1,29.03,North,0,0.0,0.0,81,0.00,,,0.00,WUHU216HW,2013-01-31 07:01:00,
2013-01-31 01:06:00,15.8,11.0,29.02,North,0,0.0,0.0,81,0.00,,,0.00,WUHU216HW,2013-01-31 07:06:00,
2013-01-31 01:11:00,15.8,11.0,29.02,North,0,0.0,0.0,81,0.00,,,0.00,WUHU216HW,2013-01-31 07:11:00,
2013-01-31 01:16:00,15.6,10.8,29.02,North,0,0.0,0.0,81,0.00,,,0.00,WUHU216HW,2013-01-31 07:16:00,
2013-01-31 01:22:00,15.4,10.6,29.02,North,0,0.0,0.0,81,0.00,,,0.00,WUHU216HW,2013-01-31 07:22:00,
2013-01-31 01:27:00,15.4,10.6,29.02,North,0,0.0,0.0,81,0.00,,,0.00,WUHU216HW,2013-01-31 07:27:00,
2013-01-31 01:32:00,15.4,10.6,29.02,North,0,0.0,0.0,81,0.00,,,0.00,WUHU216HW,2013-01-31 07:32:00,
2013-01-31 01:37:00,15.2,10.4,29.03,North,0,0.0,0.0,81,0.00,,,0.00,WUHU216HW,2013-01-31 07:37:00,
2013-01-31 01:42:00,15.2,10.4,29.03,North,0,0.0,0.0,81,0.00,,,0.00,WUHU216HW,2013-01-31 07:42:00,
2013-01-31 01:47:00,15.2,10.4,29.02,North,0,0.0,0.0,81,0.00,,,0.00,WUHU216HW,2013-01-31 07:47:00,
2013-01-31 01:52:00,15.2,10.4,29.03,North,0,0.0,0.0,81,0.00,,,0.00,WUHU216HW,2013-01-31 07:52:00,
2013-01-31 01:57:00,15.0,10.5,29.03,North,0,0.0,0.0,82,0.00,,,0.00,WUHU216HW,2013-01-31 07:57:00,
2013-01-31 02:02:00,15.0,10.5,29.03,North,0,0.0,0.0,82,0.00,,,0.00,WUHU216HW,2013-01-31 08:02:00,
2013-01-31 02:07:00,15.0,10.5,29.03,North,0,0.0,0.0,82,0.00,,,0.00,WUHU216HW,2013-01-31 08:07:00,
2013-01-31 02:12:00,15.0,10.5,29.03,North,0,0.0,0.0,82,0.00,,,0.00,WUHU216HW,2013-01-31 08:12:00,
2013-01-31 02:17:00,15.0,10.5,29.03,North,0,0.0,0.0,82,0.00,,,0.00,WUHU216HW,2013-01-31 08:17:00,
2013-01-31 02:22:00,15.0,10.5,29.04,North,0,0.0,0.0,82,0.00,,,0.00,WUHU216HW,2013-01-31 08:22:00,
2013-01-31 02:27:00,14.7,10.2,29.03,North,0,0.0,0.0,82,0.00,,,0.00,WUHU216HW,2013-01-31 08:27:00,
2013-01-31 02:32:00,15.4,10.9,29.04,North,0,0.0,0.0,82,0.00,,,0.00,WUHU216HW,2013-01-31 08:32:00,
2013-01-31 02:37:00,15.4,10.9,29.04,North,0,0.0,0.0,82,0.00,,,0.00,WUHU216HW,2013-01-31 08:37:00,
2013-01-31 02:43:00,16.7,12.3,29.04,North,0,0.0,0.0,83,0.00,,,0.00,WUHU216HW,2013-01-31 08:43:00,
2013-01-31 02:48:00,17.2,12.8,29.04,North,0,0.0,0.0,83,0.00,,,0.00,WUHU216HW,2013-01-31 08:48:00,
2013-01-31 02:53:00,17.4,13.0,29.04,North,0,0.0,0.0,83,0.00,,,0.00,WUHU216HW,2013-01-31 08:53:00,
2013-01-31 02:58:00,18.5,14.0,29.04,North,0,0.0,0.0,83,0.00,,,0.00,WUHU216HW,2013-01-31 08:58:00,
2013-01-31 03:03:00,18.6,14.2,29.04,North,0,0.0,0.0,83,0.00,,,0.00,WUHU216HW,2013-01-31 09:03:00,
2013-01-31 03:08:00,19.2,14.8,29.04,North,0,0.0,0.0,83,0.00,,,0.00,WUHU216HW,2013-01-31 09:08:00,
2013-01-31 03:13:00,19.5,15.1,29.04,North,0,0.0,0.0,83,0.00,,,0.00,WUHU216HW,2013-01-31 09:13:00,
2013-01-31 03:21:00,20.4,16.3,29.03,North,0,0.0,0.0,84,0.00,,,0.00,WUHU216HW,2013-01-31 09:21:00,
2013-01-31 03:26:00,20.4,16.3,29.02,North,0,0.0,0.0,84,0.00,,,0.00,WUHU216HW,2013-01-31 09:26:00,
2013-01-31 03:31:00,21.0,16.8,29.02,North,0,0.0,0.0,84,0.00,,,0.00,WUHU216HW,2013-01-31 09:31:00,
2013-01-31 03:36:00,21.0,16.8,29.02,North,0,0.0,0.0,84,0.00,,,0.00,WUHU216HW,2013-01-31 09:36:00,
2013-01-31 03:41:00,21.3,17.2,29.02,North,0,0.0,0.0,84,0.00,,,0.00,WUHU216HW,2013-01-31 09:41:00,
2013-01-31 03:46:00,21.3,17.2,29.02,North,0,0.0,0.0,84,0.00,,,0.00,WUHU216HW,2013-01-31 09:46:00,
2013-01-31 03:51:00,21.7,17.6,29.02,North,0,0.0,0.0,84,0.00,,,0.00,WUHU216HW,2013-01-31 09:51:00,
2013-01-31 03:56:00,21.7,17.6,29.02,North,0,0.0,0.0,84,0.00,,,0.00,WUHU216HW,2013-01-31 09:56:00,
2013-01-31 04:01:00,21.7,17.6,29.02,North,0,0.0,0.0,84,0.00,,,0.00,WUHU216HW,2013-01-31 10:01:00,
2013-01-31 04:06:00,21.9,17.7,29.02,North,0,0.0,0.0,84,0.00,,,0.00,WUHU216HW,2013-01-31 10:06:00,
2013-01-31 04:11:00,21.7,17.6,29.02,North,0,0.0,0.0,84,0.00,,,0.00,WUHU216HW,2013-01-31 10:11:00,
2013-01-31 04:16:00,21.7,17.6,29.02,North,0,0.0,0.0,84,0.00,,,0.00,WUHU216HW,2013-01-31 10:16:00,
2013-01-31 04:21:00,21.5,17.1,29.02,North,0,0.0,0.0,83,0.00,,,0.00,WUHU216HW,2013-01-31 10:21:00,
2013-01-31 04:26:00,21.5,17.1,29.01,North,0,0.0,0.0,83,0.00,,,0.00,WUHU216HW,2013-01-31 10:26:00,
2013-01-31 04:31:00,21.3,16.9,29.01,North,0,0.0,0.0,83,0.00,,,0.00,WUHU216HW,2013-01-31 10:31:00,
2013-01-31 04:36:00,21.3,16.9,29.01,North,0,0.0,0.0,83,0.00,,,0.00,WUHU216HW,2013-01-31 10:36:00,
2013-01-31 04:41:00,21.0,16.6,29.01,North,0,0.0,0.0,83,0.00,,,0.00,WUHU216HW,2013-01-31 10:41:00,
2013-01-31 04:46:00,20.8,16.4,29.00,North,0,0.0,0.0,83,0.00,,,0.00,WUHU216HW,2013-01-31 10:46:00,
2013-01-31 04:51:00,20.8,16.4,29.00,North,0,0.0,0.0,83,0.00,,,0.00,WUHU216HW,2013-01-31 10:51:00,
2013-01-31 04:56:00,20.8,16.4,29.01,North,0,0.0,0.0,83,0.00,,,0.00,WUHU216HW,2013-01-31 10:56:00,
2013-01-31 05:01:00,21.0,16.6,29.01,North,0,0.0,0.0,83,0.00,,,0.00,WUHU216HW,2013-01-31 11:01:00,
2013-01-31 05:06:00,21.0,16.6,29.01,North,0,0.0,0.0,83,0.00,,,0.00,WUHU216HW,2013-01-31 11:06:00,
2013-01-31 05:11:00,21.0,16.8,29.01,North,0,0.0,0.0,84,0.00,,,0.00,WUHU216HW,2013-01-31 11:11:00,
2013-01-31 05:16:00,21.0,16.8,29.01,North,0,0.0,0.0,84,0.00,,,0.00,WUHU216HW,2013-01-31 11:16:00,
2013-01-31 05:21:00,21.0,16.8,29.01,North,0,0.0,0.0,84,0.00,,,0.00,WUHU216HW,2013-01-31 11:21:00,
2013-01-31 05:26:00,21.0,16.8,29.01,North,0,0.0,0.0,84,0.00,,,0.00,WUHU216HW,2013-01-31 11:26:00,
2013-01-31 05:31:00,21.0,16.8,29.01,North,0,0.0,0.0,84,0.00,,,0.00,WUHU216HW,2013-01-31 11:31:00,
2013-01-31 05:36:00,21.0,16.8,29.02,North,0,0.0,0.0,84,0.00,,,0.00,WUHU216HW,2013-01-31 11:36:00,
2013-01-31 05:41:00,21.0,16.8,29.01,North,0,0.0,0.0,84,0.00,,,0.00,WUHU216HW,2013-01-31 11:41:00,
2013-01-31 05:47:00,21.0,16.8,29.02,North,0,0.0,0.0,84,0.00,,,0.00,WUHU216HW,2013-01-31 11:47:00,
2013-01-31 05:52:00,21.2,17.0,29.01,North,0,0.0,0.0,84,0.00,,,0.00,WUHU216HW,2013-01-31 11:52:00,
2013-01-31 05:57:00,21.3,17.2,29.01,North,0,0.0,0.0,84,0.00,,,0.00,WUHU216HW,2013-01-31 11:57:00,
2013-01-31 06:02:00,21.3,17.2,29.02,North,0,0.0,0.0,84,0.00,,,0.00,WUHU216HW,2013-01-31 12:02:00,
2013-01-31 06:07:00,21.3,17.2,29.02,North,0,0.0,0.0,84,0.00,,,0.00,WUHU216HW,2013-01-31 12:07:00,
2013-01-31 06:12:00,21.2,17.0,29.02,North,0,0.0,0.0,84,0.00,,,0.00,WUHU216HW,2013-01-31 12:12:00,
2013-01-31 06:17:00,21.3,17.2,29.02,North,0,0.0,0.0,84,0.00,,,0.00,WUHU216HW,2013-01-31 12:17:00,
2013-01-31 06:22:00,21.3,17.2,29.03,North,0,0.0,0.0,84,0.00,,,0.00,WUHU216HW,2013-01-31 12:22:00,
2013-01-31 06:27:00,21.3,17.2,29.03,North,0,0.0,0.0,84,0.00,,,0.00,WUHU216HW,2013-01-31 12:27:00,
2013-01-31 06:32:00,21.3,17.2,29.04,North,0,0.0,0.0,84,0.00,,,0.00,WUHU216HW,2013-01-31 12:32:00,
2013-01-31 06:37:00,21.5,17.4,29.04,North,0,0.0,0.0,84,0.00,,,0.00,WUHU216HW,2013-01-31 12:37:00,
2013-01-31 06:42:00,21.7,17.6,29.04,North,0,0.0,0.0,84,0.00,,,0.00,WUHU216HW,2013-01-31 12:42:00,
2013-01-31 06:47:00,21.9,17.7,29.05,North,0,0.0,0.0,84,0.00,,,0.00,WUHU216HW,2013-01-31 12:47:00,
2013-01-31 06:52:00,22.1,17.9,29.05,North,0,0.0,0.0,84,0.00,,,0.00,WUHU216HW,2013-01-31 12:52:00,
2013-01-31 06:57:00,22.2,18.1,29.06,North,0,0.0,0.0,84,0.00,,,0.00,WUHU216HW,2013-01-31 12:57:00,
2013-01-31 07:02:00,22.6,18.5,29.06,North,0,0.0,0.0,84,0.00,,,0.00,WUHU216HW,2013-01-31 13:02:00,
2013-01-31 07:07:00,22.8,18.6,29.06,North,0,0.0,0.0,84,0.00,,,0.00,WUHU216HW,2013-01-31 13:07:00,
2013-01-31 07:12:00,22.8,18.6,29.06,North,0,0.0,0.0,84,0.00,,,0.00,WUHU216HW,2013-01-31 13:12:00,
2013-01-31 07:17:00,22.6,18.5,29.07,North,0,0.0,0.0,84,0.00,,,0.00,WUHU216HW,2013-01-31 13:17:00,
2013-01-31 07:22:00,22.4,18.3,29.07,North,0,0.0,0.0,84,0.00,,,0.00,WUHU216HW,2013-01-31 13:22:00,
2013-01-31 07:27:00,22.4,18.3,29.07,North,0,0.0,0.0,84,0.00,,,0.00,WUHU216HW,2013-01-31 13:27:00,
2013-01-31 07:32:00,22.6,18.5,29.08,North,0,0.0,0.0,84,0.00,,,0.00,WUHU216HW,2013-01-31 13:32:00,
2013-01-31 07:37:00,22.6,18.5,29.08,North,0,0.0,0.0,84,0.00,,,0.00,WUHU216HW,2013-01-31 13:37:00,
2013-01-31 07:42:00,22.6,18.5,29.08,North,0,0.0,0.0,84,0.00,,,0.00,WUHU216HW,2013-01-31 13:42:00,
2013-01-31 07:47:00,22.6,18.2,29.08,North,0,0.0,0.0,83,0.00,,,0.00,WUHU216HW,2013-01-31 13:47:00,
2013-01-31 07:52:00,22.6,18.2,29.09,North,0,0.0,0.0,83,0.00,,,0.00,WUHU216HW,2013-01-31 13:52:00,
2013-01-31 07:57:00,23.3,18.6,29.10,North,0,0.0,0.0,82,0.00,,,0.00,WUHU216HW,2013-01-31 13:57:00,
2013-01-31 08:02:00,23.9,18.9,29.10,North,0,0.0,0.0,81,0.00,,,0.00,WUHU216HW,2013-01-31 14:02:00,
2013-01-31 08:07:00,24.0,19.2,29.11,North,0,7.8,7.8,79,0.00,,,0.00,WUHU216HW,2013-01-31 14:07:00,
2013-01-31 08:13:00,23.5,17.3,29.11,North,0,5.5,9.1,77,0.00,,,0.00,WUHU216HW,2013-01-31 14:13:00,
2013-01-31 08:18:00,23.7,17.5,29.11,North,0,9.6,9.6,77,0.00,,,0.00,WUHU216HW,2013-01-31 14:18:00,
2013-01-31 08:23:00,24.6,17.4,29.11,North,0,6.0,10.2,74,0.00,,,0.00,WUHU216HW,2013-01-31 14:23:00,
2013-01-31 08:28:00,24.9,17.1,29.12,North,0,6.0,10.2,72,0.00,,,0.00,WUHU216HW,2013-01-31 14:28:00,
2013-01-31 08:33:00,24.6,16.8,29.12,North,0,3.8,6.0,72,0.00,,,0.00,WUHU216HW,2013-01-31 14:33:00,
2013-01-31 08:38:00,23.5,15.5,29.12,North,0,6.4,17.0,71,0.00,,,0.00,WUHU216HW,2013-01-31 14:38:00,
2013-01-31 08:43:00,23.1,15.4,29.13,North,0,5.5,17.0,72,0.00,,,0.00,WUHU216HW,2013-01-31 14:43:00,
2013-01-31 08:48:00,23.1,15.4,29.12,North,0,4.2,11.1,72,0.00,,,0.00,WUHU216HW,2013-01-31 14:48:00,
2013-01-31 08:53:00,23.1,15.4,29.13,North,0,0.0,5.5,72,0.00,,,0.00,WUHU216HW,2013-01-31 14:53:00,
2013-01-31 08:58:00,23.5,15.8,29.13,North,0,6.4,7.1,72,0.00,,,0.00,WUHU216HW,2013-01-31 14:58:00,
2013-01-31 09:03:00,23.7,15.0,29.13,North,0,4.4,7.1,69,0.00,,,0.00,WUHU216HW,2013-01-31 15:03:00,
2013-01-31 09:08:00,23.7,15.0,29.13,North,0,4.9,4.9,69,0.00,,,0.00,WUHU216HW,2013-01-31 15:08:00,
2013-01-31 09:13:00,23.9,15.5,29.13,North,0,3.3,4.9,70,0.00,,,0.00,WUHU216HW,2013-01-31 15:13:00,
2013-01-31 09:18:00,24.2,15.4,29.15,North,0,4.9,4.9,69,0.00,,,0.00,WUHU216HW,2013-01-31 15:18:00,
2013-01-31 09:23:00,24.2,15.4,29.15,North,0,0.0,4.9,69,0.00,,,0.00,WUHU216HW,2013-01-31 15:23:00,
2013-01-31 09:28:00,24.2,14.8,29.16,North,0,0.0,4.9,67,0.00,,,0.00,WUHU216HW,2013-01-31 15:28:00,
2013-01-31 09:33:00,24.0,13.2,29.17,North,0,0.0,0.0,63,0.00,,,0.00,WUHU216HW,2013-01-31 15:33:00,
2013-01-31 09:38:00,23.7,12.8,29.17,North,0,1.5,8.7,63,0.00,,,0.00,WUHU216HW,2013-01-31 15:38:00,
2013-01-31 09:44:00,23.5,13.0,29.17,North,0,0.0,8.7,64,0.00,,,0.00,WUHU216HW,2013-01-31 15:44:00,
2013-01-31 09:49:00,23.5,13.0,29.17,North,0,0.0,5.1,64,0.00,,,0.00,WUHU216HW,2013-01-31 15:49:00,
2013-01-31 09:54:00,23.5,12.7,29.17,North,0,0.0,0.0,63,0.00,,,0.00,WUHU216HW,2013-01-31 15:54:00,
2013-01-31 09:59:00,23.5,12.7,29.18,North,0,0.0,0.0,63,0.00,,,0.00,WUHU216HW,2013-01-31 15:59:00,
2013-01-31 10:04:00,23.5,12.7,29.18,North,0,5.5,5.5,63,0.00,,,0.00,WUHU216HW,2013-01-31 16:04:00,
2013-01-31 10:09:00,22.8,11.3,29.18,North,0,6.2,16.5,61,0.00,,,0.00,WUHU216HW,2013-01-31 16:09:00,
2013-01-31 10:14:00,22.8,11.3,29.18,North,0,6.2,16.5,61,0.00,,,0.00,WUHU216HW,2013-01-31 16:14:00,
2013-01-31 10:19:00,23.7,12.5,29.18,North,0,12.9,12.9,62,0.00,,,0.00,WUHU216HW,2013-01-31 16:19:00,
2013-01-31 10:24:00,23.5,12.3,29.18,North,0,8.0,12.9,62,0.00,,,0.00,WUHU216HW,2013-01-31 16:24:00,
2013-01-31 10:29:00,23.5,12.3,29.18,North,0,7.1,12.9,62,0.00,,,0.00,WUHU216HW,2013-01-31 16:29:00,
2013-01-31 10:34:00,23.5,12.3,29.19,North,0,7.1,7.1,62,0.00,,,0.00,WUHU216HW,2013-01-31 16:34:00,
2013-01-31 10:39:00,22.8,11.6,29.20,North,0,7.1,7.1,62,0.00,,,0.00,WUHU216HW,2013-01-31 16:39:00,
2013-01-31 10:44:00,22.6,11.4,29.20,North,0,7.1,17.6,62,0.00,,,0.00,WUHU216HW,2013-01-31 16:44:00,
2013-01-31 10:49:00,22.2,11.8,29.21,North,0,0.0,17.6,64,0.00,,,0.00,WUHU216HW,2013-01-31 16:49:00,
2013-01-31 10:54:00,22.4,12.0,29.21,North,0,8.2,8.2,64,0.00,,,0.00,WUHU216HW,2013-01-31 16:54:00,
2013-01-31 10:59:00,22.2,11.8,29.22,North,0,6.7,8.2,64,0.00,,,0.00,WUHU216HW,2013-01-31 16:59:00,
2013-01-31 11:04:00,22.2,11.8,29.22,North,0,6.7,8.2,64,0.00,,,0.00,WUHU216HW,2013-01-31 17:04:00,
2013-01-31 11:10:00,21.9,11.5,29.22,North,0,0.0,6.7,64,0.00,,,0.00,WUHU216HW,2013-01-31 17:10:00,
2013-01-31 11:15:00,22.2,11.8,29.23,North,0,2.4,6.7,64,0.00,,,0.00,WUHU216HW,2013-01-31 17:15:00,
2013-01-31 11:20:00,22.4,11.3,29.23,North,0,4.0,4.0,62,0.00,,,0.00,WUHU216HW,2013-01-31 17:20:00,
2013-01-31 11:25:00,22.1,10.6,29.23,North,0,3.1,9.1,61,0.00,,,0.00,WUHU216HW,2013-01-31 17:25:00,
2013-01-31 11:30:00,22.1,11.3,29.23,North,0,4.2,9.1,63,0.00,,,0.00,WUHU216HW,2013-01-31 17:30:00,
2013-01-31 11:35:00,22.1,10.6,29.24,North,0,0.0,4.2,61,0.00,,,0.00,WUHU216HW,2013-01-31 17:35:00,
2013-01-31 11:40:00,21.9,9.3,29.24,North,0,2.2,4.2,58,0.00,,,0.00,WUHU216HW,2013-01-31 17:40:00,
2013-01-31 11:45:00,21.7,9.1,29.25,North,0,2.6,2.6,58,0.00,,,0.00,WUHU216HW,2013-01-31 17:45:00,
2013-01-31 11:50:00,21.9,9.3,29.24,North,0,5.8,5.8,58,0.00,,,0.00,WUHU216HW,2013-01-31 17:50:00,
2013-01-31 11:55:00,21.9,8.9,29.25,North,0,5.8,5.8,57,0.00,,,0.00,WUHU216HW,2013-01-31 17:55:00,
2013-01-31 12:00:00,21.9,8.9,29.25,North,0,17.2,17.2,57,0.00,,,0.00,WUHU216HW,2013-01-31 18:00:00,
2013-01-31 12:05:00,21.7,9.1,29.26,North,0,15.6,17.2,58,0.00,,,0.00,WUHU216HW,2013-01-31 18:05:00,
2013-01-31 12:10:00,22.1,9.5,29.25,North,0,8.9,15.6,58,0.00,,,0.00,WUHU216HW,2013-01-31 18:10:00,
2013-01-31 12:15:00,22.4,9.8,29.26,North,0,5.1,11.1,58,0.00,,,0.00,WUHU216HW,2013-01-31 18:15:00,
2013-01-31 12:20:00,22.8,9.3,29.26,North,0,4.4,11.1,56,0.00,,,0.00,WUHU216HW,2013-01-31 18:20:00,
2013-01-31 12:26:00,23.0,9.5,29.27,North,0,7.1,12.3,56,0.00,,,0.00,WUHU216HW,2013-01-31 18:26:00,
2013-01-31 12:31:00,23.1,9.3,29.27,North,0,1.1,13.4,55,0.00,,,0.00,WUHU216HW,2013-01-31 18:31:00,
2013-01-31 12:36:00,23.0,9.9,29.27,North,0,4.4,13.4,57,0.00,,,0.00,WUHU216HW,2013-01-31 18:36:00,
2013-01-31 12:41:00,22.8,10.1,29.27,North,0,4.4,7.8,58,0.00,,,0.00,WUHU216HW,2013-01-31 18:41:00,
2013-01-31 12:46:00,22.4,8.6,29.27,North,0,4.2,13.8,55,0.00,,,0.00,WUHU216HW,2013-01-31 18:46:00,
2013-01-31 12:51:00,21.9,8.5,29.27,North,0,13.8,13.8,56,0.00,,,0.00,WUHU216HW,2013-01-31 18:51:00,
2013-01-31 12:56:00,22.4,9.8,29.27,North,0,11.4,13.8,58,0.00,,,0.00,WUHU216HW,2013-01-31 18:56:00,
2013-01-31 13:01:00,23.1,9.6,29.27,North,0,8.2,13.8,56,0.00,,,0.00,WUHU216HW,2013-01-31 19:01:00,
2013-01-31 13:06:00,22.6,8.7,29.27,North,0,6.0,12.7,55,0.00,,,0.00,WUHU216HW,2013-01-31 19:06:00,
2013-01-31 13:11:00,22.1,9.0,29.28,North,0,12.5,12.7,57,0.00,,,0.00,WUHU216HW,2013-01-31 19:11:00,
2013-01-31 13:16:00,22.4,9.8,29.28,North,0,7.6,12.5,58,0.00,,,0.00,WUHU216HW,2013-01-31 19:16:00,
2013-01-31 13:21:00,22.6,9.5,29.28,North,0,8.9,8.9,57,0.00,,,0.00,WUHU216HW,2013-01-31 19:21:00,
2013-01-31 13:26:00,23.7,10.2,29.28,North,0,0.0,19.0,56,0.00,,,0.00,WUHU216HW,2013-01-31 19:26:00,
2013-01-31 13:32:00,25.5,10.2,29.28,North,0,10.0,19.0,52,0.00,,,0.00,WUHU216HW,2013-01-31 19:32:00,
2013-01-31 13:37:00,26.0,10.3,29.28,North,0,14.9,14.9,51,0.00,,,0.00,WUHU216HW,2013-01-31 19:37:00,
2013-01-31 13:42:00,25.5,9.8,29.27,North,0,5.5,17.2,51,0.00,,,0.00,WUHU216HW,2013-01-31 19:42:00,
2013-01-31 13:47:00,25.1,9.1,29.27,North,0,4.2,17.2,50,0.00,,,0.00,WUHU216HW,2013-01-31 19:47:00,
2013-01-31 13:52:00,24.9,9.3,29.28,North,0,8.2,14.7,51,0.00,,,0.00,WUHU216HW,2013-01-31 19:52:00,
2013-01-31 13:57:00,24.6,9.4,29.28,North,0,7.8,10.7,52,0.00,,,0.00,WUHU216HW,2013-01-31 19:57:00,
2013-01-31 14:02:00,24.9,9.3,29.28,North,0,17.4,17.4,51,0.00,,,0.00,WUHU216HW,2013-01-31 20:02:00,
2013-01-31 14:07:00,25.8,10.5,29.29,North,0,5.3,17.4,52,0.00,,,0.00,WUHU216HW,2013-01-31 20:07:00,
2013-01-31 14:12:00,25.5,9.4,29.29,North,0,7.3,17.4,50,0.00,,,0.00,WUHU216HW,2013-01-31 20:12:00,
2013-01-31 14:17:00,25.1,9.5,29.29,North,0,4.0,23.0,51,0.00,,,0.00,WUHU216HW,2013-01-31 20:17:00,
2013-01-31 14:22:00,27.1,10.9,29.30,North,0,0.0,23.0,50,0.00,,,0.00,WUHU216HW,2013-01-31 20:22:00,
2013-01-31 14:27:00,29.8,12.9,29.30,North,0,0.0,9.1,49,0.00,,,0.00,WUHU216HW,2013-01-31 20:27:00,
2013-01-31 14:32:00,31.2,11.7,29.30,North,0,0.0,5.8,44,0.00,,,0.00,WUHU216HW,2013-01-31 20:32:00,
2013-01-31 14:37:00,31.6,11.5,29.30,North,0,11.4,11.4,43,0.00,,,0.00,WUHU216HW,2013-01-31 20:37:00,
2013-01-31 14:42:00,30.9,11.9,29.30,North,0,6.0,11.4,45,0.00,,,0.00,WUHU216HW,2013-01-31 20:42:00,
2013-01-31 14:47:00,31.1,11.6,29.30,North,0,6.4,11.4,44,0.00,,,0.00,WUHU216HW,2013-01-31 20:47:00,
2013-01-31 14:52:00,30.0,10.1,29.30,North,0,15.2,15.2,43,0.00,,,0.00,WUHU216HW,2013-01-31 20:52:00,
2013-01-31 14:57:00,28.0,8.8,29.31,North,0,8.9,15.2,44,0.00,,,0.00,WUHU216HW,2013-01-31 20:57:00,
2013-01-31 15:02:00,27.1,7.9,29.31,North,0,10.0,10.7,44,0.00,,,0.00,WUHU216HW,2013-01-31 21:02:00,
2013-01-31 15:07:00,26.7,7.6,29.31,North,0,8.2,10.7,44,0.00,,,0.00,WUHU216HW,2013-01-31 21:07:00,
2013-01-31 15:12:00,27.3,9.1,29.31,North,0,11.4,11.4,46,0.00,,,0.00,WUHU216HW,2013-01-31 21:12:00,
2013-01-31 15:17:00,25.5,6.5,29.32,North,0,11.6,12.3,44,0.00,,,0.00,WUHU216HW,2013-01-31 21:17:00,
2013-01-31 15:22:00,23.3,4.5,29.32,North,0,20.5,20.5,44,0.00,,,0.00,WUHU216HW,2013-01-31 21:22:00,
2013-01-31 15:27:00,21.7,4.4,29.32,North,0,12.3,20.5,47,0.00,,,0.00,WUHU216HW,2013-01-31 21:27:00,
2013-01-31 15:32:00,21.0,4.7,29.32,North,0,8.9,14.0,49,0.00,,,0.00,WUHU216HW,2013-01-31 21:32:00,
2013-01-31 15:37:00,20.8,5.0,29.33,North,0,10.7,13.6,50,0.00,,,0.00,WUHU216HW,2013-01-31 21:37:00,
2013-01-31 15:42:00,21.0,5.1,29.33,North,0,8.2,10.7,50,0.00,,,0.00,WUHU216HW,2013-01-31 21:42:00,
2013-01-31 15:47:00,19.9,4.2,29.33,North,0,12.0,16.7,50,0.00,,,0.00,WUHU216HW,2013-01-31 21:47:00,
2013-01-31 15:52:00,19.4,4.5,29.34,North,0,5.5,16.7,52,0.00,,,0.00,WUHU216HW,2013-01-31 21:52:00,
2013-01-31 15:57:00,18.6,4.2,29.35,North,0,7.6,12.0,53,0.00,,,0.00,WUHU216HW,2013-01-31 21:57:00,
2013-01-31 16:02:00,17.4,3.1,29.35,North,0,11.8,15.6,53,0.00,,,0.00,WUHU216HW,2013-01-31 22:02:00,
2013-01-31 16:07:00,17.4,3.5,29.35,North,0,8.0,15.6,54,0.00,,,0.00,WUHU216HW,2013-01-31 22:07:00,
2013-01-31 16:12:00,17.2,3.7,29.35,North,0,10.2,12.0,55,0.00,,,0.00,WUHU216HW,2013-01-31 22:12:00,
2013-01-31 16:17:00,16.8,3.4,29.36,North,0,3.8,17.2,55,0.00,,,0.00,WUHU216HW,2013-01-31 22:17:00,
2013-01-31 16:22:00,16.1,2.7,29.36,North,0,4.0,17.2,55,0.00,,,0.00,WUHU216HW,2013-01-31 22:22:00,
2013-01-31 16:28:00,15.6,2.2,29.37,North,0,5.1,10.9,55,0.00,,,0.00,WUHU216HW,2013-01-31 22:28:00,
2013-01-31 16:33:00,15.0,2.0,29.37,North,0,8.7,12.9,56,0.00,,,0.00,WUHU216HW,2013-01-31 22:33:00,
2013-01-31 16:38:00,14.3,1.5,29.37,North,0,5.3,12.9,56,0.00,,,0.00,WUHU216HW,2013-01-31 22:38:00,
2013-01-31 16:43:00,14.1,2.0,29.37,North,0,3.3,12.9,58,0.00,,,0.00,WUHU216HW,2013-01-31 22:43:00,
2013-01-31 16:48:00,14.1,2.4,29.37,North,0,3.3,9.6,59,0.00,,,0.00,WUHU216HW,2013-01-31 22:48:00,
2013-01-31 16:53:00,14.1,2.4,29.37,North,0,0.0,5.1,59,0.00,,,0.00,WUHU216HW,2013-01-31 22:53:00,
2013-01-31 16:58:00,14.1,2.4,29.37,North,0,7.6,7.6,59,0.00,,,0.00,WUHU216HW,2013-01-31 22:58:00,
2013-01-31 17:03:00,14.1,2.4,29.36,North,0,9.1,9.1,59,0.00,,,0.00,WUHU216HW,2013-01-31 23:03:00,
2013-01-31 17:08:00,14.1,2.4,29.36,North,0,5.1,9.3,59,0.00,,,0.00,WUHU216HW,2013-01-31 23:08:00,
2013-01-31 17:13:00,14.1,2.4,29.36,North,0,9.3,9.3,59,0.00,,,0.00,WUHU216HW,2013-01-31 23:13:00,
2013-01-31 17:18:00,13.8,2.0,29.36,North,0,6.7,9.3,59,0.00,,,0.00,WUHU216HW,2013-01-31 23:18:00,
2013-01-31 17:23:00,13.8,2.4,29.36,North,0,7.8,9.3,60,0.00,,,0.00,WUHU216HW,2013-01-31 23:23:00,
2013-01-31 17:28:00,13.6,2.3,29.36,North,0,8.5,8.5,60,0.00,,,0.00,WUHU216HW,2013-01-31 23:28:00,
2013-01-31 17:33:00,13.6,2.3,29.37,North,0,6.9,8.5,60,0.00,,,0.00,WUHU216HW,2013-01-31 23:33:00,
2013-01-31 17:38:00,13.6,2.6,29.37,North,0,0.0,12.7,61,0.00,,,0.00,WUHU216HW,2013-01-31 23:38:00,
2013-01-31 17:43:00,13.4,2.4,29.37,North,0,6.9,12.7,61,0.00,,,0.00,WUHU216HW,2013-01-31 23:43:00,
2013-01-31 17:48:00,13.2,2.2,29.38,North,0,6.7,6.9,61,0.00,,,0.00,WUHU216HW,2013-01-31 23:48:00,
2013-01-31 17:53:00,13.2,2.2,29.38,North,0,4.2,9.6,61,0.00,,,0.00,WUHU216HW,2013-01-31 23:53:00,
2013-01-31 17:58:00,13.1,2.1,29.38,North,0,0.0,9.6,61,0.00,,,0.00,WUHU216HW,2013-01-31 23:58:00,
2013-01-31 18:03:00,12.9,1.9,29.39,North,0,0.0,5.5,61,0.00,,,0.00,WUHU216HW,2013-02-01 00:03:00,
2013-01-31 18:08:00,12.7,1.7,29.39,North,0,6.2,6.2,61,0.00,,,0.00,WUHU216HW,2013-02-01 00:08:00,
2013-01-31 18:13:00,12.7,2.0,29.39,North,0,9.1,9.1,62,0.00,,,0.00,WUHU216HW,2013-02-01 00:13:00,
2013-01-31 18:18:00,12.7,2.0,29.40,North,0,0.0,9.1,62,0.00,,,0.00,WUHU216HW,2013-02-01 00:18:00,
2013-01-31 18:23:00,12.5,1.9,29.41,North,0,6.7,9.1,62,0.00,,,0.00,WUHU216HW,2013-02-01 00:23:00,
2013-01-31 18:28:00,12.5,1.9,29.40,North,0,7.1,7.3,62,0.00,,,0.00,WUHU216HW,2013-02-01 00:28:00,
2013-01-31 18:33:00,12.3,1.3,29.40,North,0,4.2,7.1,61,0.00,,,0.00,WUHU216HW,2013-02-01 00:33:00,
2013-01-31 18:39:00,12.3,1.3,29.41,North,0,6.9,8.7,61,0.00,,,0.00,WUHU216HW,2013-02-01 00:39:00,
2013-01-31 18:44:00,12.2,1.2,29.42,North,0,3.1,8.7,61,0.00,,,0.00,WUHU216HW,2013-02-01 00:44:00,
2013-01-31 18:49:00,12.2,1.2,29.42,North,0,6.0,8.0,61,0.00,,,0.00,WUHU216HW,2013-02-01 00:49:00,
2013-01-31 18:54:00,12.0,1.0,29.43,North,0,2.9,8.0,61,0.00,,,0.00,WUHU216HW,2013-02-01 00:54:00,
2013-01-31 18:59:00,12.0,1.0,29.43,North,0,6.2,6.2,61,0.00,,,0.00,WUHU216HW,2013-02-01 00:59:00,
2013-01-31 19:04:00,11.8,0.8,29.43,North,0,0.0,6.2,61,0.00,,,0.00,WUHU216HW,2013-02-01 01:04:00,
2013-01-31 19:09:00,11.8,0.8,29.43,North,0,5.8,5.8,61,0.00,,,0.00,WUHU216HW,2013-02-01 01:09:00,
2013-01-31 19:14:00,11.6,1.0,29.43,North,0,6.4,7.3,62,0.00,,,0.00,WUHU216HW,2013-02-01 01:14:00,
2013-01-31 19:19:00,11.4,0.8,29.43,North,0,0.0,7.3,62,0.00,,,0.00,WUHU216HW,2013-02-01 01:19:00,
2013-01-31 19:24:00,11.3,0.7,29.43,North,0,7.3,7.3,62,0.00,,,0.00,WUHU216HW,2013-02-01 01:24:00,
2013-01-31 19:29:00,11.3,0.7,29.43,North,0,0.0,8.5,63,0.00,,,0.00,WUHU216HW,2013-02-01 01:29:00,
2013-01-31 19:34:00,11.1,0.8,29.43,North,0,4.4,8.5,63,0.00,,,0.00,WUHU216HW,2013-02-01 01:34:00,
2013-01-31 19:39:00,11.1,0.8,29.43,North,0,0.0,7.1,63,0.00,,,0.00,WUHU216HW,2013-02-01 01:39:00,
2013-01-31 19:44:00,10.9,0.6,29.43,North,0,0.0,4.4,63,0.00,,,0.00,WUHU216HW,2013-02-01 01:44:00,
2013-01-31 19:49:00,10.5,0.6,29.44,North,0,0.0,2.0,64,0.00,,,0.00,WUHU216HW,2013-02-01 01:49:00,
2013-01-31 19:55:00,10.2,0.3,29.44,North,0,0.0,0.0,64,0.00,,,0.00,WUHU216HW,2013-02-01 01:55:00,
2013-01-31 20:00:00,10.2,0.6,29.44,North,0,0.0,0.0,65,0.00,,,0.00,WUHU216HW,2013-02-01 02:00:00,
2013-01-31 20:05:00,10.0,0.5,29.45,North,0,0.0,0.0,65,0.00,,,0.00,WUHU216HW,2013-02-01 02:05:00,
2013-01-31 20:10:00,9.6,0.1,29.46,North,0,0.0,0.0,65,0.00,,,0.00,WUHU216HW,2013-02-01 02:10:00,
2013-01-31 20:15:00,9.6,0.1,29.46,North,0,0.0,0.0,65,0.00,,,0.00,WUHU216HW,2013-02-01 02:15:00,
2013-01-31 20:20:00,9.5,0.3,29.46,North,0,0.0,0.0,66,0.00,,,0.00,WUHU216HW,2013-02-01 02:20:00,
2013-01-31 20:25:00,9.3,0.1,29.46,North,0,0.0,0.0,66,0.00,,,0.00,WUHU216HW,2013-02-01 02:25:00,
2013-01-31 20:30:00,9.1,0.3,29.46,North,0,0.0,0.0,67,0.00,,,0.00,WUHU216HW,2013-02-01 02:30:00,
2013-01-31 20:35:00,9.1,0.3,29.46,North,0,0.0,0.0,67,0.00,,,0.00,WUHU216HW,2013-02-01 02:35:00,
2013-01-31 20:40:00,8.7,0.0,29.47,North,0,0.0,0.0,67,0.00,,,0.00,WUHU216HW,2013-02-01 02:40:00,
2013-01-31 20:45:00,8.7,0.0,29.47,North,0,0.0,0.0,67,0.00,,,0.00,WUHU216HW,2013-02-01 02:45:00,
2013-01-31 20:50:00,8.7,0.0,29.48,North,0,0.0,0.0,67,0.00,,,0.00,WUHU216HW,2013-02-01 02:50:00,
2013-01-31 20:55:00,8.4,-0.3,29.49,North,0,0.0,0.0,67,0.00,,,0.00,WUHU216HW,2013-02-01 02:55:00,
2013-01-31 21:00:00,8.4,-0.3,29.49,North,0,0.0,0.0,67,0.00,,,0.00,WUHU216HW,2013-02-01 03:00:00,
2013-01-31 21:05:00,8.0,-0.7,29.49,North,0,0.0,0.0,67,0.00,,,0.00,WUHU216HW,2013-02-01 03:05:00,
2013-01-31 21:10:00,7.8,-0.8,29.50,North,0,0.0,0.0,67,0.00,,,0.00,WUHU216HW,2013-02-01 03:10:00,
2013-01-31 21:15:00,7.5,-1.2,29.50,North,0,0.0,0.0,67,0.00,,,0.00,WUHU216HW,2013-02-01 03:15:00,
2013-01-31 21:21:00,7.3,-1.3,29.50,North,0,0.0,0.0,67,0.00,,,0.00,WUHU216HW,2013-02-01 03:21:00,
2013-01-31 21:26:00,6.9,-1.4,29.51,North,0,0.0,0.0,68,0.00,,,0.00,WUHU216HW,2013-02-01 03:26:00,
2013-01-31 21:31:00,6.6,-1.7,29.50,North,0,0.0,0.0,68,0.00,,,0.00,WUHU216HW,2013-02-01 03:31:00,
2013-01-31 21:36:00,6.4,-1.6,29.50,North,0,0.0,0.0,69,0.00,,,0.00,WUHU216HW,2013-02-01 03:36:00,
2013-01-31 21:41:00,6.4,-1.6,29.51,North,0,0.0,0.0,69,0.00,,,0.00,WUHU216HW,2013-02-01 03:41:00,
2013-01-31 21:46:00,6.6,-1.4,29.51,North,0,0.0,0.0,69,0.00,,,0.00,WUHU216HW,2013-02-01 03:46:00,
2013-01-31 21:51:00,6.6,-1.1,29.51,North,0,0.0,0.0,70,0.00,,,0.00,WUHU216HW,2013-02-01 03:51:00,
2013-01-31 21:56:00,6.6,-1.1,29.51,North,0,0.0,0.0,70,0.00,,,0.00,WUHU216HW,2013-02-01 03:56:00,
2013-01-31 22:01:00,6.6,-1.1,29.51,North,0,0.0,0.0,70,0.00,,,0.00,WUHU216HW,2013-02-01 04:01:00,
2013-01-31 22:06:00,6.6,-0.8,29.52,North,0,0.0,0.0,71,0.00,,,0.00,WUHU216HW,2013-02-01 04:06:00,
2013-01-31 22:11:00,6.6,-0.8,29.52,North,0,0.0,0.0,71,0.00,,,0.00,WUHU216HW,2013-02-01 04:11:00,
2013-01-31 22:16:00,6.6,-0.8,29.51,North,0,0.0,0.0,71,0.00,,,0.00,WUHU216HW,2013-02-01 04:16:00,
2013-01-31 22:21:00,6.2,-1.1,29.51,North,0,0.0,0.0,71,0.00,,,0.00,WUHU216HW,2013-02-01 04:21:00,
2013-01-31 22:26:00,6.0,-1.3,29.51,North,0,0.0,0.0,71,0.00,,,0.00,WUHU216HW,2013-02-01 04:26:00,
2013-01-31 22:31:00,6.0,-1.0,29.51,North,0,0.0,0.0,72,0.00,,,0.00,WUHU216HW,2013-02-01 04:31:00,
2013-01-31 22:36:00,6.0,-1.0,29.51,North,0,0.0,0.0,72,0.00,,,0.00,WUHU216HW,2013-02-01 04:36:00,
2013-01-31 22:41:00,6.0,-1.0,29.51,North,0,0.0,0.0,72,0.00,,,0.00,WUHU216HW,2013-02-01 04:41:00,
2013-01-31 22:47:00,6.0,-0.7,29.50,North,0,0.0,0.0,73,0.00,,,0.00,WUHU216HW,2013-02-01 04:47:00,
2013-01-31 22:52:00,6.0,-0.7,29.50,North,0,0.0,0.0,73,0.00,,,0.00,WUHU216HW,2013-02-01 04:52:00,
2013-01-31 22:57:00,6.0,-0.7,29.50,North,0,0.0,0.0,73,0.00,,,0.00,WUHU216HW,2013-02-01 04:57:00,
2013-01-31 23:00:00,6.0,-0.7,29.50,North,0,0.0,0.0,73,0.00,,,0.00,WUHU216HW,2013-02-01 05:00:00,
2013-01-31 23:01:00,6.0,-0.7,29.50,North,0,0.0,0.0,73,0.00,,,0.00,WUHU216HW,2013-02-01 05:01:00,
2013-01-31 23:03:00,6.0,-0.7,29.49,North,0,0.0,0.0,73,0.00,,,0.00,WUHU216HW,2013-02-01 05:03:00,
2013-01-31 23:08:00,6.0,-0.5,29.49,North,0,0.0,0.0,74,0.00,,,0.00,WUHU216HW,2013-02-01 05:08:00,
2013-01-31 23:13:00,6.4,-0.1,29.50,North,0,0.0,0.0,74,0.00,,,0.00,WUHU216HW,2013-02-01 05:13:00,
2013-01-31 23:18:00,6.4,-0.1,29.51,North,0,0.0,0.0,74,0.00,,,0.00,WUHU216HW,2013-02-01 05:18:00,
2013-01-31 23:23:00,6.4,-0.1,29.51,North,0,0.0,0.0,74,0.00,,,0.00,WUHU216HW,2013-02-01 05:23:00,
2013-01-31 23:28:00,6.0,-0.5,29.51,North,0,0.0,0.0,74,0.00,,,0.00,WUHU216HW,2013-02-01 05:28:00,
2013-01-31 23:33:00,6.0,-0.5,29.50,North,0,0.0,0.0,74,0.00,,,0.00,WUHU216HW,2013-02-01 05:33:00,
2013-01-31 23:38:00,6.0,-0.5,29.50,North,0,0.0,0.0,74,0.00,,,0.00,WUHU216HW,2013-02-01 05:38:00,
2013-01-31 23:44:00,6.0,-0.5,29.50,North,0,0.0,0.0,74,0.00,,,0.00,WUHU216HW,2013-02-01 05:44:00,
2013-01-31 23:49:00,5.9,-0.6,29.50,North,0,0.0,0.0,74,0.00,,,0.00,WUHU216HW,2013-02-01 05:49:00,
2013-01-31 23:54:00,5.5,-1.0,29.50,North,0,0.0,0.0,74,0.00,,,0.00,WUHU216HW,2013-02-01 05:54:00,
2013-01-31 23:59:00,5.5,-1.0,29.50,North,0,0.0,0.0,74,0.00,,,0.00,WUHU216HW,2013-02-01 05:59:00,